Year,Month,Day,Hour,Minute,Value (Times are PST for temperature in C)
2010,08,18,00,00,15.80
2010,08,18,00,01,15.80
2010,08,18,00,02,15.80
2010,08,18,00,03,15.80
2010,08,18,00,04,15.70
2010,08,18,00,05,15.70
2010,08,18,00,06,15.70
2010,08,18,00,07,15.70
2010,08,18,00,08,15.60
2010,08,18,00,09,15.60
2010,08,18,00,10,15.60
2010,08,18,00,11,15.60
2010,08,18,00,12,15.70
2010,08,18,00,13,15.70
2010,08,18,00,14,15.70
2010,08,18,00,15,15.70
2010,08,18,00,16,15.70
2010,08,18,00,17,15.70
2010,08,18,00,18,15.80
2010,08,18,00,19,15.80
2010,08,18,00,20,15.80
2010,08,18,00,21,15.80
2010,08,18,00,22,15.80
2010,08,18,00,23,15.90
2010,08,18,00,24,15.90
2010,08,18,00,25,16.00
2010,08,18,00,26,16.00
2010,08,18,00,27,16.00
2010,08,18,00,28,16.00
2010,08,18,00,29,16.00
2010,08,18,00,30,16.00
2010,08,18,00,31,15.90
2010,08,18,00,32,15.90
2010,08,18,00,33,15.90
2010,08,18,00,34,15.90
2010,08,18,00,35,15.90
2010,08,18,00,36,15.90
2010,08,18,00,37,15.90
2010,08,18,00,38,15.80
2010,08,18,00,39,15.80
2010,08,18,00,40,15.80
2010,08,18,00,41,15.80
2010,08,18,00,42,15.80
2010,08,18,00,43,15.80
2010,08,18,00,44,15.80
2010,08,18,00,45,15.80
2010,08,18,00,46,15.80
2010,08,18,00,47,15.80
2010,08,18,00,48,15.80
2010,08,18,00,49,15.80
2010,08,18,00,50,15.80
2010,08,18,00,51,15.80
2010,08,18,00,52,15.80
2010,08,18,00,53,15.70
2010,08,18,00,54,15.60
2010,08,18,00,55,15.60
2010,08,18,00,56,15.50
2010,08,18,00,57,15.50
2010,08,18,00,58,15.40
2010,08,18,00,59,15.40
2010,08,18,01,00,15.40
2010,08,18,01,01,15.40
2010,08,18,01,02,15.30
2010,08,18,01,03,15.30
2010,08,18,01,04,15.30
2010,08,18,01,05,15.30
2010,08,18,01,06,15.20
2010,08,18,01,07,15.20
2010,08,18,01,08,15.20
2010,08,18,01,09,15.20
2010,08,18,01,10,15.10
2010,08,18,01,11,15.10
2010,08,18,01,12,15.10
2010,08,18,01,13,15.10
2010,08,18,01,14,15.10
2010,08,18,01,15,15.00
2010,08,18,01,16,15.00
2010,08,18,01,17,15.00
2010,08,18,01,18,15.00
2010,08,18,01,19,15.00
2010,08,18,01,20,15.00
2010,08,18,01,21,15.00
2010,08,18,01,22,15.00
2010,08,18,01,23,15.00
2010,08,18,01,24,15.00
2010,08,18,01,25,14.90
2010,08,18,01,26,14.90
2010,08,18,01,27,14.90
2010,08,18,01,28,14.80
2010,08,18,01,29,14.80
2010,08,18,01,30,14.80
2010,08,18,01,31,14.80
2010,08,18,01,32,14.70
2010,08,18,01,33,14.70
2010,08,18,01,34,14.70
2010,08,18,01,35,14.70
2010,08,18,01,36,14.70
2010,08,18,01,37,14.70
2010,08,18,01,38,14.70
2010,08,18,01,39,14.60
2010,08,18,01,40,14.60
2010,08,18,01,41,14.60
2010,08,18,01,42,14.60
2010,08,18,01,43,14.60
2010,08,18,01,44,14.60
2010,08,18,01,45,14.70
2010,08,18,01,46,14.60
2010,08,18,01,47,14.60
2010,08,18,01,48,14.60
2010,08,18,01,49,14.60
2010,08,18,01,50,14.60
2010,08,18,01,51,14.60
2010,08,18,01,52,14.60
2010,08,18,01,53,14.60
2010,08,18,01,54,14.50
2010,08,18,01,55,14.50
2010,08,18,01,56,14.50
2010,08,18,01,57,14.40
2010,08,18,01,58,14.40
2010,08,18,01,59,14.40
2010,08,18,02,00,14.40
2010,08,18,02,01,14.40
2010,08,18,02,02,14.40
2010,08,18,02,03,14.40
2010,08,18,02,04,14.40
2010,08,18,02,05,14.40
2010,08,18,02,06,14.40
2010,08,18,02,07,14.40
2010,08,18,02,08,14.40
2010,08,18,02,09,14.40
2010,08,18,02,10,14.40
2010,08,18,02,11,14.40
2010,08,18,02,12,14.40
2010,08,18,02,13,14.40
2010,08,18,02,14,14.40
2010,08,18,02,15,14.40
2010,08,18,02,16,14.40
2010,08,18,02,17,14.30
2010,08,18,02,18,14.30
2010,08,18,02,19,14.30
2010,08,18,02,20,14.30
2010,08,18,02,21,14.30
2010,08,18,02,22,14.20
2010,08,18,02,23,14.20
2010,08,18,02,24,14.20
2010,08,18,02,25,14.10
2010,08,18,02,26,14.10
2010,08,18,02,27,14.00
2010,08,18,02,28,14.00
2010,08,18,02,29,14.00
2010,08,18,02,30,13.90
2010,08,18,02,31,13.90
2010,08,18,02,32,13.90
2010,08,18,02,33,13.90
2010,08,18,02,34,13.80
2010,08,18,02,35,13.80
2010,08,18,02,36,13.80
2010,08,18,02,37,13.80
2010,08,18,02,38,13.80
2010,08,18,02,39,13.80
2010,08,18,02,40,13.80
2010,08,18,02,41,13.70
2010,08,18,02,42,13.70
2010,08,18,02,43,13.70
2010,08,18,02,44,13.70
2010,08,18,02,45,13.70
2010,08,18,02,46,13.70
2010,08,18,02,47,13.70
2010,08,18,02,48,13.70
2010,08,18,02,49,13.70
2010,08,18,02,50,13.70
2010,08,18,02,51,13.60
2010,08,18,02,52,13.60
2010,08,18,02,53,13.60
2010,08,18,02,54,13.60
2010,08,18,02,55,13.60
2010,08,18,02,56,13.60
2010,08,18,02,57,13.60
2010,08,18,02,58,13.60
2010,08,18,02,59,13.60
2010,08,18,03,00,13.60
2010,08,18,03,01,13.60
2010,08,18,03,02,13.50
2010,08,18,03,03,13.50
2010,08,18,03,04,13.50
2010,08,18,03,05,13.50
2010,08,18,03,06,13.50
2010,08,18,03,07,13.40
2010,08,18,03,08,13.40
2010,08,18,03,09,13.40
2010,08,18,03,10,13.40
2010,08,18,03,11,13.40
2010,08,18,03,12,13.40
2010,08,18,03,13,13.40
2010,08,18,03,14,13.40
2010,08,18,03,15,13.40
2010,08,18,03,16,13.40
2010,08,18,03,17,13.40
2010,08,18,03,18,13.40
2010,08,18,03,19,13.40
2010,08,18,03,20,13.30
2010,08,18,03,21,13.30
2010,08,18,03,22,13.30
2010,08,18,03,23,13.30
2010,08,18,03,24,13.20
2010,08,18,03,25,13.20
2010,08,18,03,26,13.20
2010,08,18,03,27,13.20
2010,08,18,03,28,13.20
2010,08,18,03,29,13.20
2010,08,18,03,30,13.20
2010,08,18,03,31,13.20
2010,08,18,03,32,13.20
2010,08,18,03,33,13.20
2010,08,18,03,34,13.20
2010,08,18,03,35,13.20
2010,08,18,03,36,13.20
2010,08,18,03,37,13.20
2010,08,18,03,38,13.10
2010,08,18,03,39,13.10
2010,08,18,03,40,13.10
2010,08,18,03,41,13.10
2010,08,18,03,42,13.10
2010,08,18,03,43,13.10
2010,08,18,03,44,13.10
2010,08,18,03,45,13.10
2010,08,18,03,46,13.10
2010,08,18,03,47,13.10
2010,08,18,03,48,13.10
2010,08,18,03,49,13.10
2010,08,18,03,50,13.10
2010,08,18,03,51,13.10
2010,08,18,03,52,13.00
2010,08,18,03,53,13.00
2010,08,18,03,54,13.00
2010,08,18,03,55,12.90
2010,08,18,03,56,12.90
2010,08,18,03,57,12.90
2010,08,18,03,58,12.80
2010,08,18,03,59,12.80
2010,08,18,04,00,12.80
2010,08,18,04,01,12.80
2010,08,18,04,02,12.80
2010,08,18,04,03,12.80
2010,08,18,04,04,12.80
2010,08,18,04,05,12.70
2010,08,18,04,06,12.70
2010,08,18,04,07,12.70
2010,08,18,04,08,12.70
2010,08,18,04,09,12.70
2010,08,18,04,10,12.70
2010,08,18,04,11,12.60
2010,08,18,04,12,12.60
2010,08,18,04,13,12.60
2010,08,18,04,14,12.60
2010,08,18,04,15,12.60
2010,08,18,04,16,12.60
2010,08,18,04,17,12.60
2010,08,18,04,18,12.60
2010,08,18,04,19,12.60
2010,08,18,04,20,12.60
2010,08,18,04,21,12.60
2010,08,18,04,22,12.60
2010,08,18,04,23,12.50
2010,08,18,04,24,12.50
2010,08,18,04,25,12.50
2010,08,18,04,26,12.50
2010,08,18,04,27,12.50
2010,08,18,04,28,12.50
2010,08,18,04,29,12.50
2010,08,18,04,30,12.40
2010,08,18,04,31,12.40
2010,08,18,04,32,12.40
2010,08,18,04,33,12.40
2010,08,18,04,34,12.30
2010,08,18,04,35,12.30
2010,08,18,04,36,12.30
2010,08,18,04,37,12.30
2010,08,18,04,38,12.30
2010,08,18,04,39,12.30
2010,08,18,04,40,12.30
2010,08,18,04,41,12.30
2010,08,18,04,42,12.30
2010,08,18,04,43,12.30
2010,08,18,04,44,12.30
2010,08,18,04,45,12.30
2010,08,18,04,46,12.20
2010,08,18,04,47,12.20
2010,08,18,04,48,12.20
2010,08,18,04,49,12.20
2010,08,18,04,50,12.20
2010,08,18,04,51,12.20
2010,08,18,04,52,12.20
2010,08,18,04,53,12.20
2010,08,18,04,54,12.20
2010,08,18,04,55,12.20
2010,08,18,04,56,12.20
2010,08,18,04,57,12.20
2010,08,18,04,58,12.20
2010,08,18,04,59,12.20
2010,08,18,05,00,12.20
2010,08,18,05,01,12.20
2010,08,18,05,02,12.10
2010,08,18,05,03,12.10
2010,08,18,05,04,12.10
2010,08,18,05,05,12.10
2010,08,18,05,06,12.10
2010,08,18,05,07,12.10
2010,08,18,05,08,12.10
2010,08,18,05,09,12.10
2010,08,18,05,10,12.10
2010,08,18,05,11,12.00
2010,08,18,05,12,12.00
2010,08,18,05,13,12.00
2010,08,18,05,14,12.00
2010,08,18,05,15,12.00
2010,08,18,05,16,12.00
2010,08,18,05,17,12.00
2010,08,18,05,18,12.00
2010,08,18,05,19,11.90
2010,08,18,05,20,11.90
2010,08,18,05,21,11.90
2010,08,18,05,22,11.90
2010,08,18,05,23,11.90
2010,08,18,05,24,11.90
2010,08,18,05,25,11.90
2010,08,18,05,26,11.90
2010,08,18,05,27,11.90
2010,08,18,05,28,11.90
2010,08,18,05,29,11.90
2010,08,18,05,30,11.90
2010,08,18,05,31,11.90
2010,08,18,05,32,11.90
2010,08,18,05,33,11.90
2010,08,18,05,34,11.90
2010,08,18,05,35,11.90
2010,08,18,05,36,11.90
2010,08,18,05,37,11.90
2010,08,18,05,38,11.90
2010,08,18,05,39,11.90
2010,08,18,05,40,11.90
2010,08,18,05,41,11.90
2010,08,18,05,42,11.90
2010,08,18,05,43,11.90
2010,08,18,05,44,11.90
2010,08,18,05,45,11.90
2010,08,18,05,46,11.80
2010,08,18,05,47,11.80
2010,08,18,05,48,11.80
2010,08,18,05,49,11.80
2010,08,18,05,50,11.80
2010,08,18,05,51,11.80
2010,08,18,05,52,11.80
2010,08,18,05,53,11.80
2010,08,18,05,54,11.80
2010,08,18,05,55,11.80
2010,08,18,05,56,11.80
2010,08,18,05,57,11.80
2010,08,18,05,58,11.80
2010,08,18,05,59,11.80
2010,08,18,06,00,11.80
2010,08,18,06,01,11.70
2010,08,18,06,02,11.70
2010,08,18,06,03,11.70
2010,08,18,06,04,11.70
2010,08,18,06,05,11.70
2010,08,18,06,06,11.70
2010,08,18,06,07,11.70
2010,08,18,06,08,11.70
2010,08,18,06,09,11.80
2010,08,18,06,10,11.80
2010,08,18,06,11,11.70
2010,08,18,06,12,11.70
2010,08,18,06,13,11.70
2010,08,18,06,14,11.70
2010,08,18,06,15,11.70
2010,08,18,06,16,11.70
2010,08,18,06,17,11.70
2010,08,18,06,18,11.70
2010,08,18,06,19,11.60
2010,08,18,06,20,11.60
2010,08,18,06,21,11.60
2010,08,18,06,22,11.60
2010,08,18,06,23,11.60
2010,08,18,06,24,11.60
2010,08,18,06,25,11.60
2010,08,18,06,26,11.60
2010,08,18,06,27,11.60
2010,08,18,06,28,11.60
2010,08,18,06,29,11.60
2010,08,18,06,30,11.60
2010,08,18,06,31,11.60
2010,08,18,06,32,11.60
2010,08,18,06,33,11.60
2010,08,18,06,34,11.60
2010,08,18,06,35,11.60
2010,08,18,06,36,11.60
2010,08,18,06,37,11.60
2010,08,18,06,38,11.60
2010,08,18,06,39,11.60
2010,08,18,06,40,11.60
2010,08,18,06,41,11.60
2010,08,18,06,42,11.60
2010,08,18,06,43,11.60
2010,08,18,06,44,11.60
2010,08,18,06,45,11.60
2010,08,18,06,46,11.60
2010,08,18,06,47,11.50
2010,08,18,06,48,11.50
2010,08,18,06,49,11.50
2010,08,18,06,50,11.60
2010,08,18,06,51,11.60
2010,08,18,06,52,11.60
2010,08,18,06,53,11.60
2010,08,18,06,54,11.60
2010,08,18,06,55,11.60
2010,08,18,06,56,11.60
2010,08,18,06,57,11.60
2010,08,18,06,58,11.60
2010,08,18,06,59,11.60
2010,08,18,07,00,11.70
2010,08,18,07,01,11.70
2010,08,18,07,02,11.70
2010,08,18,07,03,11.70
2010,08,18,07,04,11.70
2010,08,18,07,05,11.70
2010,08,18,07,06,11.80
2010,08,18,07,07,11.80
2010,08,18,07,08,11.80
2010,08,18,07,09,11.80
2010,08,18,07,10,11.80
2010,08,18,07,11,11.90
2010,08,18,07,12,11.90
2010,08,18,07,13,11.90
2010,08,18,07,14,11.90
2010,08,18,07,15,12.00
2010,08,18,07,16,12.00
2010,08,18,07,17,12.10
2010,08,18,07,18,12.10
2010,08,18,07,19,12.20
2010,08,18,07,20,12.20
2010,08,18,07,21,12.30
2010,08,18,07,22,12.30
2010,08,18,07,23,12.30
2010,08,18,07,24,12.40
2010,08,18,07,25,12.50
2010,08,18,07,26,12.50
2010,08,18,07,27,12.60
2010,08,18,07,28,12.70
2010,08,18,07,29,12.80
2010,08,18,07,30,12.90
2010,08,18,07,31,12.90
2010,08,18,07,32,13.00
2010,08,18,07,33,13.20
2010,08,18,07,34,13.30
2010,08,18,07,35,13.40
2010,08,18,07,36,13.50
2010,08,18,07,37,13.60
2010,08,18,07,38,13.70
2010,08,18,07,39,13.70
2010,08,18,07,40,13.80
2010,08,18,07,41,13.90
2010,08,18,07,42,13.90
2010,08,18,07,43,13.90
2010,08,18,07,44,14.00
2010,08,18,07,45,14.00
2010,08,18,07,46,14.10
2010,08,18,07,47,14.10
2010,08,18,07,48,14.20
2010,08,18,07,49,14.20
2010,08,18,07,50,14.30
2010,08,18,07,51,14.20
2010,08,18,07,52,14.20
2010,08,18,07,53,14.20
2010,08,18,07,54,14.20
2010,08,18,07,55,14.20
2010,08,18,07,56,14.10
2010,08,18,07,57,14.10
2010,08,18,07,58,14.10
2010,08,18,07,59,14.10
2010,08,18,08,00,14.10
2010,08,18,08,01,14.20
2010,08,18,08,02,14.20
2010,08,18,08,03,14.30
2010,08,18,08,04,14.40
2010,08,18,08,05,14.40
2010,08,18,08,06,14.40
2010,08,18,08,07,14.40
2010,08,18,08,08,14.40
2010,08,18,08,09,14.50
2010,08,18,08,10,14.60
2010,08,18,08,11,14.60
2010,08,18,08,12,14.60
2010,08,18,08,13,14.60
2010,08,18,08,14,14.60
2010,08,18,08,15,14.60
2010,08,18,08,16,14.70
2010,08,18,08,17,14.70
2010,08,18,08,18,14.70
2010,08,18,08,19,14.70
2010,08,18,08,20,14.70
2010,08,18,08,21,14.80
2010,08,18,08,22,14.80
2010,08,18,08,23,14.90
2010,08,18,08,24,15.00
2010,08,18,08,25,15.00
2010,08,18,08,26,15.00
2010,08,18,08,27,15.00
2010,08,18,08,28,15.10
2010,08,18,08,29,15.20
2010,08,18,08,30,15.20
2010,08,18,08,31,15.20
2010,08,18,08,32,15.30
2010,08,18,08,33,15.30
2010,08,18,08,34,15.30
2010,08,18,08,35,15.30
2010,08,18,08,36,15.30
2010,08,18,08,37,15.30
2010,08,18,08,38,15.30
2010,08,18,08,39,15.30
2010,08,18,08,40,15.30
2010,08,18,08,41,15.30
2010,08,18,08,42,15.30
2010,08,18,08,43,15.30
2010,08,18,08,44,15.30
2010,08,18,08,45,15.30
2010,08,18,08,46,15.20
2010,08,18,08,47,15.20
2010,08,18,08,48,15.20
2010,08,18,08,49,15.20
2010,08,18,08,50,15.20
2010,08,18,08,51,15.20
2010,08,18,08,52,15.30
2010,08,18,08,53,15.30
2010,08,18,08,54,15.50
2010,08,18,08,55,15.50
2010,08,18,08,56,15.60
2010,08,18,08,57,15.70
2010,08,18,08,58,15.80
2010,08,18,08,59,15.90
2010,08,18,09,00,16.00
2010,08,18,09,01,16.00
2010,08,18,09,02,16.10
2010,08,18,09,03,16.20
2010,08,18,09,04,16.30
2010,08,18,09,05,16.30
2010,08,18,09,06,16.30
2010,08,18,09,07,16.30
2010,08,18,09,08,16.30
2010,08,18,09,09,16.30
2010,08,18,09,10,16.20
2010,08,18,09,11,16.20
2010,08,18,09,12,16.20
2010,08,18,09,13,16.20
2010,08,18,09,14,16.20
2010,08,18,09,15,16.20
2010,08,18,09,16,16.20
2010,08,18,09,17,16.20
2010,08,18,09,18,16.20
2010,08,18,09,19,16.20
2010,08,18,09,20,16.30
2010,08,18,09,21,16.30
2010,08,18,09,22,16.30
2010,08,18,09,23,16.30
2010,08,18,09,24,16.30
2010,08,18,09,25,16.30
2010,08,18,09,26,16.30
2010,08,18,09,27,16.40
2010,08,18,09,28,16.40
2010,08,18,09,29,16.40
2010,08,18,09,30,16.40
2010,08,18,09,31,16.30
2010,08,18,09,32,16.30
2010,08,18,09,33,16.30
2010,08,18,09,34,16.40
2010,08,18,09,35,16.40
2010,08,18,09,36,16.40
2010,08,18,09,37,16.40
2010,08,18,09,38,16.50
2010,08,18,09,39,16.60
2010,08,18,09,40,16.60
2010,08,18,09,41,16.70
2010,08,18,09,42,16.70
2010,08,18,09,43,16.80
2010,08,18,09,44,16.90
2010,08,18,09,45,16.90
2010,08,18,09,46,16.90
2010,08,18,09,47,17.00
2010,08,18,09,48,17.00
2010,08,18,09,49,17.00
2010,08,18,09,50,17.00
2010,08,18,09,51,16.80
2010,08,18,09,52,16.80
2010,08,18,09,53,16.70
2010,08,18,09,54,16.60
2010,08,18,09,55,16.60
2010,08,18,09,56,16.60
2010,08,18,09,57,16.70
2010,08,18,09,58,16.60
2010,08,18,09,59,16.70
2010,08,18,10,00,16.70
2010,08,18,10,01,16.70
2010,08,18,10,02,16.80
2010,08,18,10,03,16.80
2010,08,18,10,04,16.90
2010,08,18,10,05,16.90
2010,08,18,10,06,16.90
2010,08,18,10,07,16.90
2010,08,18,10,08,16.90
2010,08,18,10,09,16.80
2010,08,18,10,10,16.80
2010,08,18,10,11,16.80
2010,08,18,10,12,16.70
2010,08,18,10,13,16.80
2010,08,18,10,14,16.80
2010,08,18,10,15,16.80
2010,08,18,10,16,16.80
2010,08,18,10,17,16.90
2010,08,18,10,18,16.90
2010,08,18,10,19,16.90
2010,08,18,10,20,17.00
2010,08,18,10,21,17.00
2010,08,18,10,22,17.10
2010,08,18,10,23,17.10
2010,08,18,10,24,17.20
2010,08,18,10,25,17.20
2010,08,18,10,26,17.10
2010,08,18,10,27,17.10
2010,08,18,10,28,17.00
2010,08,18,10,29,16.90
2010,08,18,10,30,16.90
2010,08,18,10,31,16.90
2010,08,18,10,32,16.90
2010,08,18,10,33,16.90
2010,08,18,10,34,16.80
2010,08,18,10,35,16.80
2010,08,18,10,36,16.80
2010,08,18,10,37,16.90
2010,08,18,10,38,16.90
2010,08,18,10,39,17.00
2010,08,18,10,40,17.00
2010,08,18,10,41,17.10
2010,08,18,10,42,17.10
2010,08,18,10,43,17.20
2010,08,18,10,44,17.20
2010,08,18,10,45,17.20
2010,08,18,10,46,17.20
2010,08,18,10,47,17.20
2010,08,18,10,48,17.20
2010,08,18,10,49,17.30
2010,08,18,10,50,17.30
2010,08,18,10,51,17.30
2010,08,18,10,52,17.30
2010,08,18,10,53,17.40
2010,08,18,10,54,17.40
2010,08,18,10,55,17.40
2010,08,18,10,56,17.30
2010,08,18,10,57,17.10
2010,08,18,10,58,16.90
2010,08,18,10,59,16.80
2010,08,18,11,00,16.70
2010,08,18,11,01,16.60
2010,08,18,11,02,16.60
2010,08,18,11,03,16.60
2010,08,18,11,04,16.60
2010,08,18,11,05,16.70
2010,08,18,11,06,16.80
2010,08,18,11,07,16.80
2010,08,18,11,08,16.90
2010,08,18,11,09,16.90
2010,08,18,11,10,16.90
2010,08,18,11,11,17.00
2010,08,18,11,12,16.90
2010,08,18,11,13,16.80
2010,08,18,11,14,16.90
2010,08,18,11,15,16.90
2010,08,18,11,16,16.90
2010,08,18,11,17,16.90
2010,08,18,11,18,16.80
2010,08,18,11,19,16.80
2010,08,18,11,20,16.70
2010,08,18,11,21,16.60
2010,08,18,11,22,16.50
2010,08,18,11,23,16.40
2010,08,18,11,24,16.40
2010,08,18,11,25,16.40
2010,08,18,11,26,16.40
2010,08,18,11,27,16.40
2010,08,18,11,28,16.40
2010,08,18,11,29,16.40
2010,08,18,11,30,16.40
2010,08,18,11,31,16.50
2010,08,18,11,32,16.60
2010,08,18,11,33,16.70
2010,08,18,11,34,16.70
2010,08,18,11,35,16.80
2010,08,18,11,36,17.00
2010,08,18,11,37,17.20
2010,08,18,11,38,17.20
2010,08,18,11,39,17.20
2010,08,18,11,40,17.30
2010,08,18,11,41,17.30
2010,08,18,11,42,17.30
2010,08,18,11,43,17.20
2010,08,18,11,44,17.20
2010,08,18,11,45,17.20
2010,08,18,11,46,17.10
2010,08,18,11,47,17.10
2010,08,18,11,48,17.00
2010,08,18,11,49,17.00
2010,08,18,11,50,17.00
2010,08,18,11,51,17.10
2010,08,18,11,52,17.00
2010,08,18,11,53,16.90
2010,08,18,11,54,16.90
2010,08,18,11,55,16.90
2010,08,18,11,56,16.90
2010,08,18,11,57,17.00
2010,08,18,11,58,17.10
2010,08,18,11,59,17.10
2010,08,18,12,00,17.20
2010,08,18,12,01,17.20
2010,08,18,12,02,17.20
2010,08,18,12,03,17.30
2010,08,18,12,04,17.40
2010,08,18,12,05,17.40
2010,08,18,12,06,17.40
2010,08,18,12,07,17.40
2010,08,18,12,08,17.40
2010,08,18,12,09,17.50
2010,08,18,12,10,17.50
2010,08,18,12,11,17.50
2010,08,18,12,12,17.50
2010,08,18,12,13,17.50
2010,08,18,12,14,17.50
2010,08,18,12,15,17.60
2010,08,18,12,16,17.60
2010,08,18,12,17,17.60
2010,08,18,12,18,17.60
2010,08,18,12,19,17.60
2010,08,18,12,20,17.60
2010,08,18,12,21,17.60
2010,08,18,12,22,17.60
2010,08,18,12,23,17.60
2010,08,18,12,24,17.60
2010,08,18,12,25,17.50
2010,08,18,12,26,17.50
2010,08,18,12,27,17.60
2010,08,18,12,28,17.60
2010,08,18,12,29,17.70
2010,08,18,12,30,17.80
2010,08,18,12,31,17.70
2010,08,18,12,32,17.70
2010,08,18,12,33,17.80
2010,08,18,12,34,17.80
2010,08,18,12,35,17.90
2010,08,18,12,36,17.90
2010,08,18,12,37,17.80
2010,08,18,12,38,17.80
2010,08,18,12,39,17.80
2010,08,18,12,40,17.80
2010,08,18,12,41,17.80
2010,08,18,12,42,17.80
2010,08,18,12,43,17.90
2010,08,18,12,44,18.00
2010,08,18,12,45,18.00
2010,08,18,12,46,18.10
2010,08,18,12,47,18.10
2010,08,18,12,48,18.20
2010,08,18,12,49,18.30
2010,08,18,12,50,18.40
2010,08,18,12,51,18.40
2010,08,18,12,52,18.40
2010,08,18,12,53,18.40
2010,08,18,12,54,18.40
2010,08,18,12,55,18.40
2010,08,18,12,56,18.40
2010,08,18,12,57,18.30
2010,08,18,12,58,18.30
2010,08,18,12,59,18.30
2010,08,18,13,00,18.30
2010,08,18,13,01,18.20
2010,08,18,13,02,18.10
2010,08,18,13,03,18.00
2010,08,18,13,04,17.90
2010,08,18,13,05,17.90
2010,08,18,13,06,17.90
2010,08,18,13,07,18.00
2010,08,18,13,08,18.10
2010,08,18,13,09,18.20
2010,08,18,13,10,18.20
2010,08,18,13,11,18.30
2010,08,18,13,12,18.30
2010,08,18,13,13,18.30
2010,08,18,13,14,18.30
2010,08,18,13,15,18.30
2010,08,18,13,16,18.30
2010,08,18,13,17,18.40
2010,08,18,13,18,18.40
2010,08,18,13,19,18.50
2010,08,18,13,20,18.60
2010,08,18,13,21,18.70
2010,08,18,13,22,18.80
2010,08,18,13,23,18.90
2010,08,18,13,24,18.90
2010,08,18,13,25,19.00
2010,08,18,13,26,19.00
2010,08,18,13,27,19.10
2010,08,18,13,28,19.20
2010,08,18,13,29,19.20
2010,08,18,13,30,19.30
2010,08,18,13,31,19.40
2010,08,18,13,32,19.40
2010,08,18,13,33,19.30
2010,08,18,13,34,19.20
2010,08,18,13,35,19.00
2010,08,18,13,36,18.90
2010,08,18,13,37,18.80
2010,08,18,13,38,18.80
2010,08,18,13,39,18.70
2010,08,18,13,40,18.60
2010,08,18,13,41,18.80
2010,08,18,13,42,18.80
2010,08,18,13,43,18.90
2010,08,18,13,44,18.90
2010,08,18,13,45,18.90
2010,08,18,13,46,18.90
2010,08,18,13,47,19.00
2010,08,18,13,48,19.00
2010,08,18,13,49,18.90
2010,08,18,13,50,18.90
2010,08,18,13,51,18.90
2010,08,18,13,52,19.00
2010,08,18,13,53,19.10
2010,08,18,13,54,19.20
2010,08,18,13,55,19.30
2010,08,18,13,56,19.30
2010,08,18,13,57,19.40
2010,08,18,13,58,19.40
2010,08,18,13,59,19.40
2010,08,18,14,00,19.50
2010,08,18,14,01,19.60
2010,08,18,14,02,19.70
2010,08,18,14,03,19.80
2010,08,18,14,04,19.80
2010,08,18,14,05,19.80
2010,08,18,14,06,19.80
2010,08,18,14,07,19.80
2010,08,18,14,08,19.80
2010,08,18,14,09,19.70
2010,08,18,14,10,19.70
2010,08,18,14,11,19.70
2010,08,18,14,12,19.70
2010,08,18,14,13,19.80
2010,08,18,14,14,19.70
2010,08,18,14,15,19.70
2010,08,18,14,16,19.50
2010,08,18,14,17,19.40
2010,08,18,14,18,19.30
2010,08,18,14,19,19.00
2010,08,18,14,20,18.80
2010,08,18,14,21,18.80
2010,08,18,14,22,18.80
2010,08,18,14,23,18.80
2010,08,18,14,24,18.80
2010,08,18,14,25,18.80
2010,08,18,14,26,18.80
2010,08,18,14,27,18.80
2010,08,18,14,28,18.70
2010,08,18,14,29,18.70
2010,08,18,14,30,18.70
2010,08,18,14,31,18.70
2010,08,18,14,32,18.70
2010,08,18,14,33,18.80
2010,08,18,14,34,18.80
2010,08,18,14,35,18.90
2010,08,18,14,36,19.00
2010,08,18,14,37,19.10
2010,08,18,14,38,19.20
2010,08,18,14,39,19.30
2010,08,18,14,40,19.30
2010,08,18,14,41,19.30
2010,08,18,14,42,19.30
2010,08,18,14,43,19.30
2010,08,18,14,44,19.20
2010,08,18,14,45,19.10
2010,08,18,14,46,19.10
2010,08,18,14,47,19.00
2010,08,18,14,48,18.90
2010,08,18,14,49,18.90
2010,08,18,14,50,18.80
2010,08,18,14,51,18.80
2010,08,18,14,52,18.80
2010,08,18,14,53,18.70
2010,08,18,14,54,18.50
2010,08,18,14,55,18.40
2010,08,18,14,56,18.40
2010,08,18,14,57,18.40
2010,08,18,14,58,18.40
2010,08,18,14,59,18.40
2010,08,18,15,00,18.50
2010,08,18,15,01,18.50
2010,08,18,15,02,18.30
2010,08,18,15,03,18.30
2010,08,18,15,04,18.30
2010,08,18,15,05,18.30
2010,08,18,15,06,18.30
2010,08,18,15,07,18.20
2010,08,18,15,08,18.10
2010,08,18,15,09,18.10
2010,08,18,15,10,18.00
2010,08,18,15,11,18.00
2010,08,18,15,12,18.10
2010,08,18,15,13,18.20
2010,08,18,15,14,18.20
2010,08,18,15,15,18.30
2010,08,18,15,16,18.30
2010,08,18,15,17,18.30
2010,08,18,15,18,18.20
2010,08,18,15,19,18.20
2010,08,18,15,20,18.20
2010,08,18,15,21,18.20
2010,08,18,15,22,18.20
2010,08,18,15,23,18.20
2010,08,18,15,24,18.10
2010,08,18,15,25,18.20
2010,08,18,15,26,18.20
2010,08,18,15,27,18.30
2010,08,18,15,28,18.40
2010,08,18,15,29,18.40
2010,08,18,15,30,18.50
2010,08,18,15,31,18.50
2010,08,18,15,32,18.40
2010,08,18,15,33,18.30
2010,08,18,15,34,18.20
2010,08,18,15,35,18.20
2010,08,18,15,36,18.20
2010,08,18,15,37,18.10
2010,08,18,15,38,18.00
2010,08,18,15,39,18.00
2010,08,18,15,40,18.00
2010,08,18,15,41,18.00
2010,08,18,15,42,18.00
2010,08,18,15,43,18.10
2010,08,18,15,44,18.20
2010,08,18,15,45,18.20
2010,08,18,15,46,18.30
2010,08,18,15,47,18.30
2010,08,18,15,48,18.40
2010,08,18,15,49,18.50
2010,08,18,15,50,18.60
2010,08,18,15,51,18.60
2010,08,18,15,52,18.60
2010,08,18,15,53,18.70
2010,08,18,15,54,18.70
2010,08,18,15,55,18.90
2010,08,18,15,56,19.00
2010,08,18,15,57,19.10
2010,08,18,15,58,19.20
2010,08,18,15,59,19.20
2010,08,18,16,00,19.20
2010,08,18,16,01,19.20
2010,08,18,16,02,19.20
2010,08,18,16,03,19.20
2010,08,18,16,04,19.20
2010,08,18,16,05,19.30
2010,08,18,16,06,19.50
2010,08,18,16,07,19.60
2010,08,18,16,08,19.60
2010,08,18,16,09,19.70
2010,08,18,16,10,19.70
2010,08,18,16,11,19.70
2010,08,18,16,12,19.70
2010,08,18,16,13,19.70
2010,08,18,16,14,19.60
2010,08,18,16,15,19.60
2010,08,18,16,16,19.60
2010,08,18,16,17,19.60
2010,08,18,16,18,19.60
2010,08,18,16,19,19.70
2010,08,18,16,20,19.70
2010,08,18,16,21,19.70
2010,08,18,16,22,19.70
2010,08,18,16,23,19.70
2010,08,18,16,24,19.80
2010,08,18,16,25,19.80
2010,08,18,16,26,19.90
2010,08,18,16,27,19.90
2010,08,18,16,28,20.00
2010,08,18,16,29,20.00
2010,08,18,16,30,20.00
2010,08,18,16,31,20.00
2010,08,18,16,32,20.00
2010,08,18,16,33,19.90
2010,08,18,16,34,19.90
2010,08,18,16,35,19.90
2010,08,18,16,36,19.80
2010,08,18,16,37,19.80
2010,08,18,16,38,19.80
2010,08,18,16,39,19.80
2010,08,18,16,40,19.80
2010,08,18,16,41,19.90
2010,08,18,16,42,19.80
2010,08,18,16,43,19.80
2010,08,18,16,44,19.80
2010,08,18,16,45,19.80
2010,08,18,16,46,19.70
2010,08,18,16,47,19.70
2010,08,18,16,48,19.70
2010,08,18,16,49,19.80
2010,08,18,16,50,19.60
2010,08,18,16,51,19.60
2010,08,18,16,52,19.50
2010,08,18,16,53,19.40
2010,08,18,16,54,19.50
2010,08,18,16,55,19.40
2010,08,18,16,56,19.50
2010,08,18,16,57,19.50
2010,08,18,16,58,19.60
2010,08,18,16,59,19.60
2010,08,18,17,00,19.60
2010,08,18,17,01,19.60
2010,08,18,17,02,19.70
2010,08,18,17,03,19.80
2010,08,18,17,04,19.80
2010,08,18,17,05,19.70
2010,08,18,17,06,19.60
2010,08,18,17,07,19.60
2010,08,18,17,08,19.50
2010,08,18,17,09,19.50
2010,08,18,17,10,19.40
2010,08,18,17,11,19.50
2010,08,18,17,12,19.50
2010,08,18,17,13,19.50
2010,08,18,17,14,19.50
2010,08,18,17,15,19.40
2010,08,18,17,16,19.30
2010,08,18,17,17,19.20
2010,08,18,17,18,19.10
2010,08,18,17,19,19.00